FW2726 Weather Reports


Display with metric or nautical units.
time (UTC)temp
F
wind
direction
speed
MPH
gust
MPH
rain 1hr
in
rain 24hr
in
rain mn
in
humidity
%
barometer
mb
20260906120131 56 41 6.0 10.0 0.00 0.00 0.00 95 1019.6
20260906114609 56 42 6.0 10.0 0.00 0.00 0.00 95 1019.6
20260906113109 56 34 4.0 9.0 0.00 0.00 0.00 95 1020.1
20260906111607 56 34 4.0 8.0 0.00 0.00 0.00 95 1020.2
20260906110118 56 28 4.0 7.0 0.00 0.00 0.00 95 1020.4
20260906104609 56 26 4.0 7.0 0.00 0.00 0.00 95 1020.4
20260906103106 56 32 3.0 6.0 0.00 0.00 0.00 95 1020.4
20260906101605 56 27 2.0 4.0 0.00 0.00 0.00 95 1020.7
20260906100114 56 23 2.0 3.0 0.00 0.00 0.00 94 1020.6
20260906094606 56 48 1.0 4.0 0.00 0.00 0.00 94 1020.5
20260906093119 56 48 1.0 3.0 0.00 0.00 0.00 94 1020.4
20260906091609 56 48 0.0 3.0 0.00 0.00 0.00 94 1020.4
20260906090137 56 32 2.0 4.0 0.00 0.00 0.00 94 1020.1
20260906084606 56 45 2.0 5.0 0.00 0.00 0.00 94 1020.3
20260906083105 56 58 2.0 4.0 0.00 0.00 0.00 94 1020.5
20260906081604 56 38 2.0 4.0 0.00 0.00 0.00 93 1020.5
20260906080106 56 27 1.0 4.0 0.00 0.00 0.00 93 1020.6
20260906074606 56 0 0.0 0.0 0.00 0.00 0.00 93 1020.9
20260906073110 56 0 0.0 3.0 0.00 0.00 0.00 93 1021.0
20260906071611 56 58 2.0 5.0 0.00 0.00 0.00 93 1020.9
20260906070110 56 34 2.0 4.0 0.00 0.00 0.00 93 1021.1
20260906064607 56 47 2.0 5.0 0.00 0.00 0.00 93 1020.9
20260906063106 56 57 1.0 4.0 0.00 0.00 0.00 93 1020.9
20260906061607 56 0 0.0 4.0 0.00 0.00 0.00 93 1021.1
20260906060111 56 48 2.0 5.0 0.00 0.00 0.00 93 1020.9
20260906054624 56 60 4.0 6.0 0.00 0.01 0.00 93 1021.0
20260906053106 57 53 3.0 8.0 0.00 0.01 0.00 92 1020.9
20260906051606 57 55 4.0 9.0 0.00 0.01 0.00 92 1020.8
20260906050135 57 64 5.0 9.0 0.00 0.01 0.00 92 1020.6
20260906044606 57 65 6.0 12.0 0.00 0.20 0.00 92 1020.5
20260906043111 57 50 5.0 9.0 0.00 0.20 0.00 92 1020.5
20260906041605 57 65 6.0 10.0 0.00 0.20 0.00 92 1020.4
20260906040117 57 43 5.0 9.0 0.00 0.20 0.00 92 1020.4
20260906034611 57 41 5.0 10.0 0.00 0.35 0.00 92 1020.3
20260906033106 57 62 5.0 10.0 0.00 0.35 0.00 92 1020.2
20260906031604 57 64 5.0 8.0 0.00 0.35 0.00 92 1020.1
20260906030135 57 58 4.0 9.0 0.00 0.35 0.00 92 1020.1
20260906024609 57 56 5.0 11.0 0.00 0.38 0.00 91 1020.0
20260906023130 57 43 6.0 10.0 0.00 0.38 0.00 90 1019.7
20260906021614 58 34 4.0 11.0 0.00 0.38 0.00 90 1019.7
20260906020113 58 25 6.0 13.0 0.00 0.38 0.00 89 1019.6
20260906014630 59 43 7.0 12.0 0.00 0.39 0.00 89 1019.5
20260906013108 59 31 5.0 12.0 0.00 0.39 0.00 89 1019.4
20260906011607 59 47 4.0 12.0 0.00 0.39 0.00 88 1019.2
20260906010105 60 41 7.0 12.0 0.00 0.39 0.00 88 1019.1
20260906004606 60 33 7.0 12.0 0.00 0.42 0.00 87 1019.2
20260906003110 61 50 6.0 12.0 0.00 0.42 0.00 86 1019.1
20260906001606 61 60 4.0 13.0 0.00 0.42 0.00 85 1019.2
20260906000105 62 35 7.0 11.0 0.00 0.42 0.00 85 1019.1
20260905234618 62 46 8.0 13.0 0.00 0.42 0.00 84 1018.9
20260905233104 62 16 5.0 10.0 0.00 0.42 0.00 84 1018.9
20260905231624 62 31 6.0 14.0 0.00 0.42 0.00 83 1018.7
20260905230108 62 21 6.0 11.0 0.00 0.42 0.00 83 1018.6
20260905224610 63 43 6.0 10.0 0.00 0.42 0.00 82 1018.8
20260905223107 63 19 7.0 12.0 0.00 0.42 0.00 82 1018.6
20260905221608 63 74 7.0 12.0 0.00 0.42 0.00 82 1018.4
20260905220108 63 31 7.0 13.0 0.00 0.42 0.00 82 1018.3
20260905214613 64 56 10.0 17.0 0.00 0.42 0.00 82 1018.1
20260905213117 64 38 10.0 16.0 0.00 0.42 0.00 83 1017.7
20260905211607 63 58 11.0 15.0 0.00 0.42 0.00 85 1017.8
20260905210109 63 73 9.0 15.0 0.00 0.42 0.00 87 1017.9
20260905204609 63 64 7.0 12.0 0.00 0.42 0.00 86 1018.1
20260905203110 63 40 9.0 12.0 0.00 0.42 0.00 86 1017.8
20260905201608 63 49 7.0 11.0 0.00 0.42 0.00 86 1018.0
20260905200108 63 70 5.0 11.0 0.00 0.42 0.00 87 1018.6
20260905194608 62 37 5.0 10.0 0.00 0.42 0.00 90 1018.6
20260905193103 61 20 6.0 12.0 0.00 0.42 0.00 92 1018.4
20260905191615 60 29 7.0 13.0 0.00 0.42 0.00 94 1018.2
20260905190107 60 35 8.0 13.0 0.00 0.42 0.00 96 1018.3
20260905184623 59 38 4.0 8.0 0.00 0.42 0.00 97 1018.6
20260905183106 59 21 3.0 6.0 0.00 0.42 0.00 97 1019.0
20260905181611 58 23 3.0 9.0 0.00 0.42 0.00 97 1018.8
20260905180115 58 47 6.0 10.0 0.00 0.42 0.00 97 1018.4
20260905174622 58 26 5.0 10.0 0.00 0.42 0.00 97 1018.4
20260905173113 57 42 5.0 10.0 0.00 0.42 0.00 97 1018.0
20260905171606 57 359 7.0 11.0 0.00 0.42 0.00 97 1017.9
20260905170106 56 52 6.0 13.0 0.00 0.42 0.00 97 1017.7
20260905164609 55 35 6.0 12.0 0.00 0.42 0.00 97 1017.7
20260905163109 55 29 6.0 12.0 0.00 0.42 0.00 97 1017.6
20260905161608 55 27 7.0 14.0 0.00 0.42 0.00 96 1017.3
20260905160110 56 51 8.0 12.0 0.00 0.42 0.00 96 1017.2
20260905154609 56 17 9.0 13.0 0.00 0.42 0.00 97 1017.1
20260905153120 56 11 8.0 12.0 0.00 0.42 0.00 97 1016.9
20260905151609 55 28 8.0 12.0 0.00 0.42 0.00 97 1016.7
20260905150105 55 20 8.0 13.0 0.00 0.42 0.00 97 1016.2
20260905144611 54 12 7.0 12.0 0.00 0.42 0.00 96 1016.1
20260905143109 54 18 6.0 11.0 0.00 0.42 0.00 96 1016.2
20260905141615 53 4 4.0 10.0 0.00 0.42 0.00 96 1016.3
20260905140109 52 359 4.0 8.0 0.00 0.42 0.00 96 1016.3
20260905134615 50 17 2.0 5.0 0.00 0.42 0.00 96 1015.9
20260905133106 49 0 0.0 2.0 0.00 0.42 0.00 95 1015.7
20260905131608 49 351 1.0 3.0 0.00 0.42 0.00 95 1015.4
20260905130117 49 351 0.0 1.0 0.00 0.42 0.00 95 1015.1
20260905124611 49 351 2.0 4.0 0.00 0.42 0.00 95 1014.7
20260905123109 49 354 2.0 4.0 0.00 0.42 0.00 95 1014.6
20260905121606 49 0 0.0 0.0 0.00 0.42 0.00 95 1014.6